Flag for U.S.A. Weather past 2 weeks in Nashville, Tennessee, U.S.A.

Now
54 °F

Passing clouds.


Feels Like: 54 °F
Forecast: 46 / 70 °F
Wind: No wind

Location: Nashville International Airport

Current Time: Oct 24, 2014 at 9:54:29 AM

Latest Report: Oct 24, 2014 at 8:53 AM


Visibility: 10 mi

Pressure: 30.14 "Hg

Humidity: 74%

Dew point: 46 °F

Location of NashvilleLocation

Historic Weather in Nashville — Graph

°F

Nashville temperature yesterday

Maximum temperature yesterday: 64 °F (at 1:53 PM)
Minimum temperature yesterday: 42 °F (at 4:53 AM)
Average temperature yesterday: 53 °F

Past Weeks' High & Low Weather Summary

 TemperatureHumidityPressure
High81 °F (Oct 9, 4:53 PM)100% (Oct 10, 9:58 AM)30.27 "Hg (Oct 10, 9:58 AM)
Low42 °F (Oct 23, 4:53 AM)22% (Oct 9, 11:53 AM)29.60 "Hg (Oct 14, 3:53 AM)
Average60 °F79%29.99 "Hg
* Reported Oct 9 8:53 AM — Oct 24 8:53 AM, Nashville, Weather by CustomWeather, © 2014

Note: Actual official high and low records may vary slightly from our data, if they occured in-between our weather recording intervals... More about our weather records

Advertising

Nashville weather history for previous 24 hours

 ConditionsComfort  
Time TempWeatherWind HumidityBarometerVisibility
8:53 AM
Oct 24
54 °FPassing clouds.No wind74%30.14 "Hg10 mi
7:53 AM48 °FScattered clouds.5 mph89%30.15 "Hg9 mi
6:53 AM45 °FPassing clouds.No wind93%30.13 "Hg9 mi
5:53 AM47 °FPassing clouds.No wind90%30.11 "Hg9 mi
4:53 AM50 °FPassing clouds.5 mph83%30.11 "Hg10 mi
3:53 AM50 °FOvercast.No wind86%30.10 "Hg10 mi
2:53 AM50 °FOvercast.3 mph86%30.10 "Hg10 mi
1:53 AM50 °FOvercast.5 mph86%30.11 "Hg10 mi
12:53 AM52 °FOvercast.6 mph77%30.10 "Hg10 mi
11:53 PM
Oct 23
51 °FOvercast.No wind80%30.12 "Hg10 mi
10:53 PM54 °FOvercast.No wind69%30.12 "Hg10 mi
9:53 PM54 °FOvercast.3 mph69%30.14 "Hg10 mi
8:53 PM54 °FOvercast.7 mph69%30.13 "Hg10 mi
7:53 PM56 °FPassing clouds.7 mph65%30.12 "Hg10 mi
6:53 PM57 °FPartly cloudy.6 mph62%30.12 "Hg10 mi
5:53 PM61 °FPartly sunny.No wind52%30.11 "Hg10 mi
4:53 PM64 °FPartly sunny.No wind43%30.11 "Hg10 mi
3:53 PM64 °FPartly sunny.5 mph43%30.11 "Hg10 mi
2:53 PM64 °FPartly sunny.6 mph41%30.11 "Hg10 mi
1:53 PM64 °FBroken clouds.3 mph43%30.14 "Hg10 mi
12:53 PM62 °FBroken clouds.5 mph46%30.17 "Hg10 mi
11:53 AM58 °FScattered clouds.7 mph56%30.21 "Hg10 mi
10:53 AM56 °FPassing clouds.9 mph58%30.22 "Hg10 mi
9:53 AM52 °FPassing clouds.10 mph69%30.23 "Hg10 mi
Weather by CustomWeather, © 2014

See weather overviewHow to use our weather pages